KLM312 EBCI-LFBH

Flight info

Callsign KLM312
Flight time 1h 12m
Altitude 35000
Route CIV N872 MEDIL DCT DIDAK/N0360F190 A5 NTS A25 LUSON
Aircraft B737/M-SDE2E3FGHIRWXY/LB1

Departure

Time 2026-05-05 08:18
Airport Brussels South Charleroi Airport (EBCI)

Arrival

Time 2026-05-05 09:31
Airport La Rochelle Île de Ré Airport (LFBH)
Time Latitude Longitude Altitude Speed Heading
2026-05-05 07:52 50.46905 4.47225 608 ft 0 kts 337°
2026-05-05 08:11 50.46897 4.47231 619 ft 4 kts 344°
2026-05-05 08:11 50.46873 4.47230 621 ft 4 kts 28°
2026-05-05 08:12 50.46858 4.47216 609 ft 1 kts 27°
2026-05-05 08:12 50.46856 4.47215 609 ft 0 kts 27°
2026-05-05 08:14 50.46862 4.47221 609 ft 3 kts 36°
2026-05-05 08:15 50.46876 4.47262 619 ft 6 kts 80°
2026-05-05 08:15 50.46879 4.47336 617 ft 7 kts 76°
2026-05-05 08:15 50.46899 4.47409 613 ft 8 kts 65°
2026-05-05 08:15 50.46922 4.47488 607 ft 7 kts 65°
2026-05-05 08:16 50.46931 4.47516 607 ft 1 kts 64°
2026-05-05 08:16 50.46935 4.47530 606 ft 2 kts 64°
2026-05-05 08:16 50.46943 4.47561 618 ft 4 kts 78°
2026-05-05 08:16 50.46931 4.47599 606 ft 5 kts 146°
2026-05-05 08:17 50.46890 4.47627 613 ft 8 kts 156°
2026-05-05 08:17 50.46820 4.47674 610 ft 13 kts 156°
2026-05-05 08:17 50.46733 4.47729 615 ft 13 kts 167°
2026-05-05 08:17 50.46676 4.47662 616 ft 3 kts 245°
2026-05-05 08:18 50.46667 4.47629 614 ft 20 kts 246°
2026-05-05 08:18 50.46484 4.46997 616 ft 107 kts 246°
2026-05-05 08:18 50.46070 4.45599 673 ft 173 kts 246°
2026-05-05 08:18 50.45499 4.43847 1513 ft 178 kts 248°
2026-05-05 08:19 50.44999 4.42087 2582 ft 177 kts 250°
2026-05-05 08:19 50.44503 4.40249 3379 ft 195 kts 248°
2026-05-05 08:19 50.43903 4.38105 3800 ft 235 kts 247°
2026-05-05 08:19 50.43174 4.35569 4178 ft 273 kts 246°
2026-05-05 08:20 50.42377 4.32800 5245 ft 281 kts 246°
2026-05-05 08:20 50.41570 4.29995 6526 ft 284 kts 246°
2026-05-05 08:20 50.40886 4.27080 7622 ft 290 kts 264°
2026-05-05 08:20 50.41140 4.23994 8693 ft 288 kts 296°
2026-05-05 08:21 50.42089 4.21254 9928 ft 288 kts 303°
2026-05-05 08:21 50.43194 4.18544 10574 ft 307 kts 305°
2026-05-05 08:21 50.44430 4.15586 10870 ft 338 kts 305°
2026-05-05 08:21 50.45735 4.12435 11596 ft 350 kts 304°
2026-05-05 08:22 50.47058 4.09195 12580 ft 355 kts 304°
2026-05-05 08:22 50.48389 4.05898 13646 ft 359 kts 304°
2026-05-05 08:22 50.49729 4.02557 14597 ft 365 kts 303°
2026-05-05 08:22 50.51090 3.99148 15502 ft 371 kts 303°
2026-05-05 08:23 50.52474 3.95685 16450 ft 377 kts 302°
2026-05-05 08:23 50.53673 3.92008 17387 ft 383 kts 286°
2026-05-05 08:23 50.53975 3.87845 18298 ft 386 kts 263°
2026-05-05 08:23 50.53210 3.83849 19208 ft 383 kts 239°
2026-05-05 08:24 50.51615 3.80517 20105 ft 384 kts 224°
2026-05-05 08:24 50.49538 3.77893 20931 ft 385 kts 207°
2026-05-05 08:24 50.47176 3.76132 21734 ft 387 kts 201°
2026-05-05 08:24 50.44797 3.74585 22430 ft 393 kts 201°
2026-05-05 08:25 50.42244 3.72932 23259 ft 397 kts 201°
2026-05-05 08:25 50.39696 3.71236 24044 ft 399 kts 201°
2026-05-05 08:25 50.37147 3.69472 24763 ft 402 kts 206°
2026-05-05 08:25 50.34764 3.67146 25439 ft 407 kts 216°
2026-05-05 08:26 50.32618 3.64231 26158 ft 410 kts 224°
2026-05-05 08:26 50.30767 3.60825 26868 ft 413 kts 230°
2026-05-05 08:26 50.29004 3.57256 27530 ft 416 kts 231°
2026-05-05 08:26 50.27255 3.53653 28143 ft 418 kts 231°
2026-05-05 08:27 50.25491 3.50023 28782 ft 421 kts 231°
2026-05-05 08:27 50.23711 3.46371 29432 ft 422 kts 231°
2026-05-05 08:27 50.21924 3.42725 29983 ft 423 kts 231°
2026-05-05 08:27 50.20127 3.39082 30509 ft 423 kts 231°
2026-05-05 08:28 50.18335 3.35466 31144 ft 420 kts 231°
2026-05-05 08:28 50.16550 3.31881 31856 ft 415 kts 230°
2026-05-05 08:28 50.14789 3.28353 32556 ft 410 kts 230°
2026-05-05 08:28 50.13065 3.24901 33136 ft 408 kts 229°
2026-05-05 08:29 50.11320 3.21414 33616 ft 408 kts 229°
2026-05-05 08:29 50.09556 3.17895 34106 ft 407 kts 229°
2026-05-05 08:29 50.07806 3.14409 34419 ft 409 kts 229°
2026-05-05 08:30 50.04299 3.07438 34915 ft 416 kts 230°
2026-05-05 08:30 50.00718 3.00338 34890 ft 415 kts 230°
2026-05-05 08:31 49.97192 2.93357 34906 ft 410 kts 230°
2026-05-05 08:31 49.93662 2.86390 34906 ft 411 kts 229°
2026-05-05 08:32 49.90124 2.79426 34920 ft 412 kts 229°
2026-05-05 08:32 49.86583 2.72474 34899 ft 414 kts 229°
2026-05-05 08:33 49.83006 2.65471 34898 ft 415 kts 229°
2026-05-05 08:33 49.79419 2.58465 34903 ft 415 kts 229°
2026-05-05 08:34 49.75828 2.51471 34898 ft 415 kts 229°
2026-05-05 08:34 49.72233 2.44487 34895 ft 415 kts 229°
2026-05-05 08:35 49.68648 2.37542 34895 ft 414 kts 229°
2026-05-05 08:35 49.65042 2.30575 34887 ft 414 kts 229°
2026-05-05 08:36 49.61442 2.23637 34905 ft 413 kts 229°
2026-05-05 08:36 49.57858 2.16749 34890 ft 412 kts 229°
2026-05-05 08:37 49.54285 2.09899 34884 ft 412 kts 229°
2026-05-05 08:37 49.50676 2.02998 34889 ft 411 kts 229°
2026-05-05 08:38 49.47075 1.96130 34884 ft 412 kts 228°
2026-05-05 08:38 49.43469 1.89273 34888 ft 413 kts 228°
2026-05-05 08:39 49.39856 1.82419 34882 ft 414 kts 228°
2026-05-05 08:39 49.36247 1.75588 34899 ft 415 kts 228°
2026-05-05 08:40 49.32584 1.68676 34889 ft 416 kts 228°
2026-05-05 08:40 49.28923 1.61784 34881 ft 416 kts 228°
2026-05-05 08:41 49.25276 1.54935 34888 ft 415 kts 227°
2026-05-05 08:41 49.21655 1.48154 34879 ft 415 kts 227°
2026-05-05 08:42 49.17960 1.41250 34887 ft 415 kts 227°
2026-05-05 08:42 49.14302 1.34436 34881 ft 415 kts 227°
2026-05-05 08:43 49.10663 1.27672 34890 ft 415 kts 227°
2026-05-05 08:43 49.06993 1.20870 34886 ft 416 kts 227°
2026-05-05 08:44 49.03320 1.14079 34887 ft 417 kts 227°
2026-05-05 08:44 48.99616 1.07250 34886 ft 418 kts 227°
2026-05-05 08:45 48.95932 1.00474 34887 ft 418 kts 227°
2026-05-05 08:45 48.92189 0.93605 34882 ft 419 kts 227°
2026-05-05 08:46 48.88461 0.86785 34892 ft 419 kts 227°
2026-05-05 08:46 48.84728 0.79972 34883 ft 419 kts 227°
2026-05-05 08:47 48.80993 0.73170 34878 ft 419 kts 227°
2026-05-05 08:47 48.77263 0.66396 34880 ft 418 kts 226°
2026-05-05 08:48 48.73538 0.59649 34874 ft 418 kts 226°
2026-05-05 08:48 48.69798 0.52893 34174 ft 421 kts 226°
2026-05-05 08:48 48.67910 0.49488 33401 ft 420 kts 226°
2026-05-05 08:49 48.66035 0.46112 32576 ft 420 kts 226°
2026-05-05 08:49 48.64179 0.42773 31936 ft 417 kts 226°
2026-05-05 08:49 48.62311 0.39413 31318 ft 413 kts 226°
2026-05-05 08:49 48.60457 0.36086 30732 ft 409 kts 226°
2026-05-05 08:50 48.58651 0.32851 30156 ft 407 kts 226°
2026-05-05 08:50 48.56834 0.29598 29539 ft 404 kts 226°
2026-05-05 08:50 48.55009 0.26333 28872 ft 400 kts 226°
2026-05-05 08:50 48.53255 0.23202 28296 ft 396 kts 226°
2026-05-05 08:51 48.51475 0.20029 27684 ft 393 kts 226°
2026-05-05 08:51 48.49716 0.16896 27093 ft 390 kts 226°
2026-05-05 08:51 48.47972 0.13795 26513 ft 388 kts 227°
2026-05-05 08:51 48.46234 0.10706 25913 ft 386 kts 227°
2026-05-05 08:52 48.44514 0.07653 25344 ft 384 kts 227°
2026-05-05 08:52 48.42792 0.04600 24774 ft 382 kts 227°
2026-05-05 08:52 48.41055 0.01523 24166 ft 382 kts 227°
2026-05-05 08:52 48.39349 -0.01494 23571 ft 381 kts 227°
2026-05-05 08:53 48.37611 -0.04563 22863 ft 381 kts 228°
2026-05-05 08:53 48.35895 -0.07593 22249 ft 380 kts 228°
2026-05-05 08:53 48.34186 -0.10607 21644 ft 377 kts 228°
2026-05-05 08:53 48.32492 -0.13592 21055 ft 375 kts 228°
2026-05-05 08:54 48.30838 -0.16505 20474 ft 373 kts 228°
2026-05-05 08:54 48.29142 -0.19485 19892 ft 371 kts 228°
2026-05-05 08:54 48.27448 -0.22456 19329 ft 369 kts 228°
2026-05-05 08:54 48.25756 -0.25313 18999 ft 363 kts 223°
2026-05-05 08:55 48.23915 -0.27758 18913 ft 359 kts 218°
2026-05-05 08:55 48.21966 -0.30188 18886 ft 369 kts 218°
2026-05-05 08:55 48.19946 -0.32679 18866 ft 371 kts 218°
2026-05-05 08:55 48.17992 -0.35090 18857 ft 370 kts 218°
2026-05-05 08:56 48.15991 -0.37569 18860 ft 370 kts 218°
2026-05-05 08:56 48.13984 -0.40062 18874 ft 371 kts 219°
2026-05-05 08:56 48.12025 -0.42499 18874 ft 371 kts 219°
2026-05-05 08:56 48.10045 -0.44966 18873 ft 372 kts 219°
2026-05-05 08:57 48.08030 -0.47476 18867 ft 371 kts 219°
2026-05-05 08:57 48.06083 -0.49899 18875 ft 370 kts 219°
2026-05-05 08:57 48.04098 -0.52368 18878 ft 370 kts 219°
2026-05-05 08:57 48.02119 -0.54826 18895 ft 370 kts 218°
2026-05-05 08:58 48.00138 -0.57285 18896 ft 372 kts 218°
2026-05-05 08:58 47.98145 -0.59755 18878 ft 372 kts 218°
2026-05-05 08:58 47.96162 -0.62211 18872 ft 370 kts 218°
2026-05-05 08:58 47.94196 -0.64645 18875 ft 368 kts 218°
2026-05-05 08:59 47.92202 -0.67110 18878 ft 367 kts 218°
2026-05-05 08:59 47.90239 -0.69534 18883 ft 367 kts 218°
2026-05-05 08:59 47.88940 -0.71136 18884 ft 366 kts 218°
2026-05-05 08:59 47.86972 -0.73562 18879 ft 367 kts 218°
2026-05-05 09:00 47.84982 -0.76013 18878 ft 367 kts 218°
2026-05-05 09:00 47.83039 -0.78404 18881 ft 367 kts 218°
2026-05-05 09:00 47.81074 -0.80821 18872 ft 368 kts 218°
2026-05-05 09:00 47.79099 -0.83245 18875 ft 368 kts 218°
2026-05-05 09:01 47.77119 -0.85675 18884 ft 369 kts 217°
2026-05-05 09:01 47.75139 -0.88101 18879 ft 369 kts 217°
2026-05-05 09:01 47.73199 -0.90475 18874 ft 369 kts 217°
2026-05-05 09:01 47.71214 -0.92904 18871 ft 369 kts 217°
2026-05-05 09:02 47.69238 -0.95321 18873 ft 369 kts 217°
2026-05-05 09:02 47.67251 -0.97750 18870 ft 369 kts 217°
2026-05-05 09:02 47.65270 -1.00170 18867 ft 369 kts 217°
2026-05-05 09:02 47.63287 -1.02589 18874 ft 369 kts 217°
2026-05-05 09:03 47.61305 -1.05007 18874 ft 369 kts 217°
2026-05-05 09:03 47.59329 -1.07414 18871 ft 368 kts 217°
2026-05-05 09:03 47.57368 -1.09799 18884 ft 367 kts 217°
2026-05-05 09:03 47.55388 -1.12222 18876 ft 366 kts 217°
2026-05-05 09:04 47.53455 -1.14656 18872 ft 364 kts 218°
2026-05-05 09:04 47.51534 -1.17099 18876 ft 363 kts 218°
2026-05-05 09:04 47.49620 -1.19532 18878 ft 362 kts 218°
2026-05-05 09:04 47.47710 -1.21950 18878 ft 362 kts 218°
2026-05-05 09:05 47.45792 -1.24368 18879 ft 362 kts 218°
2026-05-05 09:05 47.43877 -1.26777 18892 ft 362 kts 218°
2026-05-05 09:05 47.41960 -1.29177 18891 ft 360 kts 218°
2026-05-05 09:05 47.40083 -1.31523 18872 ft 345 kts 217°
2026-05-05 09:06 47.38295 -1.33758 18751 ft 331 kts 217°
2026-05-05 09:06 47.36553 -1.35931 18432 ft 325 kts 218°
2026-05-05 09:06 47.34818 -1.38090 17680 ft 331 kts 218°
2026-05-05 09:06 47.33021 -1.40321 16942 ft 339 kts 218°
2026-05-05 09:07 47.31223 -1.42556 16648 ft 340 kts 218°
2026-05-05 09:07 47.29397 -1.44826 16333 ft 345 kts 218°
2026-05-05 09:07 47.27552 -1.47117 16015 ft 349 kts 218°
2026-05-05 09:07 47.25697 -1.49420 15694 ft 348 kts 218°
2026-05-05 09:08 47.23848 -1.51713 15377 ft 347 kts 219°
2026-05-05 09:08 47.22007 -1.53995 15063 ft 345 kts 219°
2026-05-05 09:08 47.20174 -1.56263 14752 ft 344 kts 219°
2026-05-05 09:08 47.18341 -1.58512 14442 ft 342 kts 217°
2026-05-05 09:09 47.16246 -1.60090 14118 ft 341 kts 194°
2026-05-05 09:09 47.13897 -1.60380 13833 ft 340 kts 174°
2026-05-05 09:09 47.11587 -1.59659 13525 ft 338 kts 166°
2026-05-05 09:09 47.09320 -1.58754 13165 ft 338 kts 165°
2026-05-05 09:10 47.07062 -1.57814 12845 ft 337 kts 165°
2026-05-05 09:10 47.04812 -1.56879 12527 ft 336 kts 165°
2026-05-05 09:10 47.02567 -1.55956 12223 ft 334 kts 165°
2026-05-05 09:10 47.00329 -1.55047 11921 ft 333 kts 165°
2026-05-05 09:11 46.98127 -1.54161 11626 ft 332 kts 166°
2026-05-05 09:11 46.95868 -1.53259 11333 ft 331 kts 165°
2026-05-05 09:11 46.93643 -1.52374 11026 ft 331 kts 166°
2026-05-05 09:11 46.91427 -1.51496 10730 ft 330 kts 166°
2026-05-05 09:12 46.89220 -1.50623 10433 ft 326 kts 166°
2026-05-05 09:12 46.87066 -1.49771 10133 ft 316 kts 166°
2026-05-05 09:12 46.84973 -1.48944 9861 ft 306 kts 166°
2026-05-05 09:12 46.83004 -1.48167 9847 ft 289 kts 166°
2026-05-05 09:13 46.81066 -1.47403 9370 ft 289 kts 166°
2026-05-05 09:13 46.79144 -1.46646 9078 ft 282 kts 166°
2026-05-05 09:13 46.77269 -1.45908 8800 ft 277 kts 166°
2026-05-05 09:13 46.75407 -1.45177 8540 ft 277 kts 167°
2026-05-05 09:14 46.73553 -1.44448 8286 ft 276 kts 167°
2026-05-05 09:14 46.71699 -1.43721 8033 ft 275 kts 167°
2026-05-05 09:14 46.69847 -1.42995 7786 ft 275 kts 167°
2026-05-05 09:14 46.68000 -1.42271 7533 ft 275 kts 167°
2026-05-05 09:15 46.66159 -1.41549 7276 ft 274 kts 167°
2026-05-05 09:15 46.64319 -1.40829 7028 ft 273 kts 167°
2026-05-05 09:15 46.62490 -1.40114 6781 ft 272 kts 167°
2026-05-05 09:15 46.60664 -1.39402 6538 ft 271 kts 167°
2026-05-05 09:16 46.58844 -1.38682 6293 ft 271 kts 166°
2026-05-05 09:16 46.57033 -1.37948 6028 ft 270 kts 166°
2026-05-05 09:16 46.55225 -1.37215 5761 ft 269 kts 166°
2026-05-05 09:16 46.53433 -1.36489 5516 ft 266 kts 166°
2026-05-05 09:17 46.51657 -1.35770 5280 ft 264 kts 166°
2026-05-05 09:17 46.49989 -1.34712 5084 ft 264 kts 143°
2026-05-05 09:17 46.48747 -1.32763 4900 ft 265 kts 127°
2026-05-05 09:17 46.47662 -1.30582 4665 ft 269 kts 126°
2026-05-05 09:18 46.46582 -1.28363 4388 ft 268 kts 126°
2026-05-05 09:18 46.45509 -1.26165 4136 ft 266 kts 126°
2026-05-05 09:18 46.44444 -1.23998 3892 ft 263 kts 126°
2026-05-05 09:18 46.43380 -1.21849 3647 ft 261 kts 126°
2026-05-05 09:19 46.42317 -1.19718 3427 ft 261 kts 127°
2026-05-05 09:19 46.41255 -1.17589 3182 ft 260 kts 127°
2026-05-05 09:19 46.40194 -1.15465 2959 ft 261 kts 127°
2026-05-05 09:19 46.39125 -1.13332 2700 ft 259 kts 127°
2026-05-05 09:20 46.38084 -1.11256 2538 ft 249 kts 127°
2026-05-05 09:20 46.37094 -1.09282 2481 ft 235 kts 127°
2026-05-05 09:20 46.36168 -1.07423 2460 ft 220 kts 127°
2026-05-05 09:20 46.35315 -1.05677 2478 ft 208 kts 127°
2026-05-05 09:21 46.34497 -1.03978 2499 ft 200 kts 127°
2026-05-05 09:21 46.33715 -1.02355 2504 ft 198 kts 126°
2026-05-05 09:21 46.32899 -1.00705 2504 ft 199 kts 127°
2026-05-05 09:21 46.32096 -0.99053 2516 ft 203 kts 127°
2026-05-05 09:22 46.31285 -0.97400 2485 ft 203 kts 127°
2026-05-05 09:22 46.30481 -0.95762 2480 ft 197 kts 127°
2026-05-05 09:22 46.29692 -0.94143 2493 ft 197 kts 126°
2026-05-05 09:22 46.28904 -0.92537 2475 ft 195 kts 127°
2026-05-05 09:23 46.28119 -0.90921 2468 ft 195 kts 127°
2026-05-05 09:23 46.27313 -0.89324 2473 ft 198 kts 134°
2026-05-05 09:23 46.26192 -0.88250 2487 ft 193 kts 168°
2026-05-05 09:23 46.24886 -0.88214 2498 ft 187 kts 195°
2026-05-05 09:24 46.23621 -0.88561 2493 ft 188 kts 195°
2026-05-05 09:24 46.22333 -0.88917 2492 ft 188 kts 195°
2026-05-05 09:24 46.21029 -0.89282 2491 ft 189 kts 195°
2026-05-05 09:24 46.19742 -0.89640 2472 ft 188 kts 195°
2026-05-05 09:25 46.18460 -0.90001 2477 ft 187 kts 195°
2026-05-05 09:25 46.17345 -0.90789 2471 ft 174 kts 238°
2026-05-05 09:25 46.17009 -0.92404 1947 ft 181 kts 272°
2026-05-05 09:25 46.17143 -0.94118 1927 ft 157 kts 280°
2026-05-05 09:26 46.17328 -0.95609 1982 ft 147 kts 279°
2026-05-05 09:26 46.17468 -0.96995 1987 ft 134 kts 274°
2026-05-05 09:26 46.17472 -0.98297 1692 ft 129 kts 269°
2026-05-05 09:26 46.17459 -0.99569 1637 ft 120 kts 270°
2026-05-05 09:27 46.17404 -1.00708 1806 ft 116 kts 260°
2026-05-05 09:27 46.17301 -1.01886 2113 ft 118 kts 272°
2026-05-05 09:27 46.17357 -1.03047 2353 ft 118 kts 275°
2026-05-05 09:27 46.17459 -1.04231 2349 ft 119 kts 278°
2026-05-05 09:28 46.17539 -1.05411 2099 ft 120 kts 274°
2026-05-05 09:28 46.17589 -1.06590 1761 ft 115 kts 272°
2026-05-05 09:28 46.17611 -1.07736 1384 ft 113 kts 269°
2026-05-05 09:28 46.17589 -1.08856 1131 ft 111 kts 266°
2026-05-05 09:29 46.17608 -1.09966 1071 ft 108 kts 276°
2026-05-05 09:29 46.17710 -1.11190 1182 ft 126 kts 275°
2026-05-05 09:29 46.17793 -1.12392 1073 ft 118 kts 272°
2026-05-05 09:29 46.17806 -1.13576 827 ft 118 kts 263°
2026-05-05 09:30 46.17745 -1.14733 632 ft 116 kts 271°
2026-05-05 09:30 46.17786 -1.15952 490 ft 125 kts 277°
2026-05-05 09:30 46.17848 -1.17190 291 ft 123 kts 272°
2026-05-05 09:30 46.17883 -1.18398 108 ft 115 kts 272°
2026-05-05 09:31 46.17916 -1.19412 76 ft 77 kts 272°
2026-05-05 09:31 46.17929 -1.19858 77 ft 21 kts 272°
2026-05-05 09:31 46.17931 -1.19945 77 ft 9 kts 272°
2026-05-05 09:31 46.17935 -1.20048 76 ft 13 kts 272°
2026-05-05 09:32 46.17939 -1.20189 74 ft 17 kts 272°
2026-05-05 09:32 46.17945 -1.20369 73 ft 19 kts 272°
2026-05-05 09:32 46.17951 -1.20552 71 ft 18 kts 272°
2026-05-05 09:32 46.17956 -1.20729 68 ft 17 kts 272°
2026-05-05 09:33 46.17953 -1.20844 61 ft 8 kts 253°
2026-05-05 09:33 46.17937 -1.20887 68 ft 0 kts 235°
2026-05-05 09:34 46.17935 -1.20891 68 ft 2 kts 236°
2026-05-05 09:34 46.17936 -1.20915 69 ft 3 kts 313°
2026-05-05 09:34 46.17953 -1.20903 62 ft 4 kts 52°
2026-05-05 09:34 46.17958 -1.20853 68 ft 7 kts 89°
2026-05-05 09:35 46.17955 -1.20762 66 ft 11 kts 92°
2026-05-05 09:35 46.17947 -1.20474 68 ft 18 kts 91°
2026-05-05 09:35 46.17940 -1.20275 73 ft 22 kts 91°
2026-05-05 09:36 46.17935 -1.20050 76 ft 22 kts 93°
2026-05-05 09:36 46.17928 -1.19830 77 ft 22 kts 92°
2026-05-05 09:36 46.17922 -1.19623 74 ft 15 kts 92°
2026-05-05 09:36 46.17907 -1.19536 71 ft 9 kts 135°
2026-05-05 09:37 46.17848 -1.19524 76 ft 9 kts 182°
2026-05-05 09:37 46.17787 -1.19529 72 ft 9 kts 184°
2026-05-05 09:37 46.17728 -1.19531 76 ft 8 kts 178°
2026-05-05 09:37 46.17691 -1.19476 69 ft 8 kts 99°
2026-05-05 09:38 46.17688 -1.19426 76 ft 4 kts 105°
2026-05-05 09:38 46.17670 -1.19414 76 ft 2 kts 178°
2026-05-05 09:38 46.17655 -1.19414 76 ft 2 kts 180°
2026-05-05 09:38 46.17643 -1.19421 76 ft 2 kts 218°
2026-05-05 09:39 46.17638 -1.19437 72 ft 1 kts 257°
2026-05-05 09:39 46.17638 -1.19447 71 ft 1 kts 270°
2026-05-05 09:39 46.17639 -1.19454 76 ft 1 kts 281°
2026-05-05 09:39 46.17640 -1.19459 76 ft 0 kts 287°